Showing default

DRESDEN, 65297

Orbit data source: Space-Track

DRESDEN, 65297 is a payload satellite owned by E-Space (RW) in SSO that was launched on Sat, 23 Aug 2025 UTC via an ELECTRON launch vehicle from the Rocket Lab Launch Complex (RLLC). Payload-class satellites include a variety of spacecraft equipped with specific instruments for various scientific and technological missions. These include communications satellites like Starlink; space stations such as the ISS; scientific satellites like the Hubble; Earth observation satellites from companies like Planet Labs, Umbra, and HawkEye 360; GPS; miniature CubeSats for education and research; and military/defense satellites.

Loading next visibility...
Identifier
65297, 2025-185A
Orbit
SSO
Country
Flag of RWRW / RWA
Related business
Manufacturer
E-Space
Mission
Operational Commercial Communications
Bus & Motor
CALISTUS, Unknown motor
Mass
~30 kg wet, ~30 kg dry
Launch date (UTC)
2025-08-23 (10 months ago)
Launch vehicle
ELECTRON
Launch site
Rocket Lab Launch Complex (RLLC)
Object type
Payload
Rocket body
Debris
Shape & HBR
Box + 1 Pan, 1.1 m
Radar Cross Section
0.475 m², Large (>1 m²)

Expand to show TLE details & history
Last TLE update: 9 hours ago

TLE from 9 hours ago
0 DRESDEN
1 65297U 25185A   26162.80133186  .00007840  00000-0  10588-2 0  9990
2 65297  97.9632 246.1694 0015821 109.2735 251.0189 14.79255854 43039
Epoch: 2026-06-11T19:13Z
TLE epoch observation values (Epoch: 2026-06-11T19:13:55.072Z)
Latitude
-0.00006°
Longitude
57.55003°
Altitude
638.316 km
Speed
7.537 km/s
True Right ascension
16h 24m 40s
True Declination
0° 00' 00"
Sunlit
Object was in full shadow at epoch
Visualization orbit readout
Latitude
Unknown
Longitude
Unknown
Altitude
Unknown
Speed
Unknown
Apparent Right ascension
Unknown
Apparent Declination
Unknown
Sunlit
N/A
Visualization observer readout
Local Sidereal Time
14:27:46
Azimuth
Unknown
Elevation
Unknown
Doppler factor
Unknown
Orbital elements
Apogee altitude
639.804 km
Perigee altitude
617.633 km
Semi-major axis
7,006.856 km
Eccentricity
0.00158
Inclination
97.9632°
RAAN
246.1694°
Arg. of periapsis
109.2735°
True anomaly
250.84757°
Mean anomaly
251.0189°
Eccentric anomaly
250.93323°
Mean motion
3.70048 °/min
Orbital period
97.28 mins
BSTAR
0.0010588
Loading maneuver chart data...
Computing Atmospheric mass density...
Loading historical data...
Loading historical data...
Loading historical data...
Loading historical data...
Loading historical data...
Loading historical data...
Loading historical data...

Documentation

Showing up to 5 results
|